Weather History for EHGR - December, 2012

Change the Weather History Date:

Tuesday, December 25, 2012

  Actual Average Record
Temperature  
Mean Temperature 48 °F -  
Max Temperature 51 °F 41 °F 57 °F (1997)
Min Temperature 46 °F 31 °F 17 °F (1996)
Degree Days  
Heating Degree Days 16    
Moisture  
Dew Point 46 °F    
Average Humidity 91    
Maximum Humidity 100    
Minimum Humidity 71    
Precipitation  
Precipitation 0.00 in - - ()
Sea Level Pressure  
Sea Level Pressure 29.46 in    
Wind  
Wind Speed 9 mph ()    
Max Wind Speed 20 mph    
Max Gust Speed 32 mph    
Visibility 5.8 miles    
Events Rain    
Averages and records for this station are not official NWS values.
T = Trace of Precipitation, MM = Missing Value Source: Averaged Metar Reports

Daily Weather History Graph

Daily Weather History Graph

Search for Another Location

Airport or City:

Trip Planner

Search our weather history database for the weather conditions in past years. The results will help you decide how hot, cold, wet, or windy it might be!

Date:

Astronomy

Dec. 25, 2012 Rise Set
Actual Time 8:45 AM CET 4:35 PM CET
Civil Twilight 8:05 AM CET 5:15 PM CET
Nautical Twilight 7:21 AM CET 5:59 PM CET
Astronomical Twilight 6:41 AM CET 6:40 PM CET
Moon 2:38 PM CET (12/25) 5:57 AM CET (12/25)
Length of Visible Light 9h 10m
Length of Day
7h 50m
Waxing Gibbous, 92% of the Moon is Illuminated
Dec 25
Waxing Gibbous
Dec 28
Full
Jan 5
Last Quarter
Jan 11
New
Jan 19
First Quarter

Hourly Weather History & Observations

Time (CET) Temp. Windchill Dew Point Humidity Pressure Visibility Wind Dir Wind Speed Gust Speed Precip Events Conditions
12:20 AM 50.0 °F - 48.2 °F 94% 29.50 in 6.2 mi SW 6.9 mph - N/A Rain Light Rain
12:25 AM 50.0 °F - 48.2 °F 94% 29.50 in 6.2 mi SW 6.9 mph - N/A Rain Light Rain
12:40 AM 50.0 °F - 48.2 °F 94% 29.50 in 6.2 mi SSW 4.6 mph - N/A Rain Heavy Drizzle
12:49 AM 50.0 °F - 48.2 °F 94% 29.50 in 4.3 mi SSW 4.6 mph - N/A Rain Light Rain
12:55 AM 50.0 °F - 48.2 °F 94% 29.50 in 4.3 mi SSW 4.6 mph - N/A Rain Rain
12:59 AM 50.0 °F - 48.2 °F 94% 29.47 in 4.3 mi SSW 3.5 mph - N/A Rain Light Rain
1:15 AM 50.0 °F - 50.0 °F 100% 29.47 in 5.0 mi SSW 3.5 mph - N/A Rain Light Rain Showers
1:19 AM 50.0 °F - 50.0 °F 100% 29.47 in 5.0 mi SSW 2.3 mph - N/A Rain Light Rain Showers
1:25 AM 50.0 °F - 50.0 °F 100% 29.47 in 5.0 mi SSW 2.3 mph - N/A Rain Light Rain Showers
1:34 AM 50.0 °F - 50.0 °F 100% 29.44 in - South 2.3 mph - N/A Rain Light Rain
1:50 AM 50.0 °F - 50.0 °F 100% 29.44 in 3.1 mi South 4.6 mph - N/A Rain Light Rain
1:55 AM 50.0 °F - 50.0 °F 100% 29.44 in 3.7 mi South 5.8 mph - N/A Rain Light Rain
2:09 AM 50.0 °F - 50.0 °F 100% 29.44 in 3.7 mi South 5.8 mph - N/A Rain Rain
2:25 AM 50.0 °F - 50.0 °F 100% 29.44 in 3.1 mi South 6.9 mph - N/A Rain Light Rain
2:36 AM 50.0 °F - 50.0 °F 100% 29.42 in 5.0 mi South 8.1 mph - N/A Rain Light Rain
2:49 AM 50.0 °F - 50.0 °F 100% 29.42 in 5.6 mi South 12.7 mph - N/A Rain Light Rain Showers
2:55 AM 51.8 °F - 50.0 °F 94% 29.42 in 6.2 mi South 13.8 mph - N/A Rain Light Rain
3:25 AM 51.8 °F - 50.0 °F 94% 29.39 in 6.2 mi SSW 16.1 mph - N/A Rain Light Rain
3:55 AM 51.8 °F - 50.0 °F 94% 29.39 in 6.2 mi SSW 17.3 mph 31.1 mph N/A Rain Heavy Drizzle
4:10 AM 51.8 °F - 50.0 °F 94% 29.39 in 3.7 mi SSW 16.1 mph - N/A Rain Rain Showers
4:11 AM 51.8 °F - 50.0 °F 94% 29.39 in 4.3 mi SW 15.0 mph - N/A Rain Rain Showers
4:20 AM 50.0 °F - 48.2 °F 94% 29.39 in 5.0 mi West 12.7 mph - N/A Rain Rain Showers
4:25 AM 50.0 °F - 48.2 °F 94% 29.42 in 5.6 mi West 10.4 mph - N/A Rain Light Rain Showers
4:37 AM 48.2 °F - 48.2 °F 100% 29.42 in 6.2 mi West 10.4 mph - N/A Rain Light Rain
4:44 AM 48.2 °F - 48.2 °F 100% 29.42 in 5.6 mi West 9.2 mph - N/A   Heavy Drizzle
4:48 AM 48.2 °F - 48.2 °F 100% 29.42 in 4.3 mi West 9.2 mph - N/A   Drizzle
4:55 AM 48.2 °F - 48.2 °F 100% 29.42 in 4.3 mi West 8.1 mph - N/A Rain Rain
4:59 AM 48.2 °F - 48.2 °F 100% 29.42 in 4.3 mi West 9.2 mph - N/A Rain Light Rain
5:07 AM 48.2 °F - 48.2 °F 100% 29.42 in 6.2 mi West 6.9 mph - N/A Rain Light Rain
5:16 AM 48.2 °F - 48.2 °F 100% 29.42 in 6.2 mi West 6.9 mph - N/A Rain Light Rain Showers
5:25 AM 48.2 °F - 48.2 °F 100% 29.42 in 6.2 mi WSW 5.8 mph - N/A Rain Light Rain
5:39 AM 48.2 °F - 48.2 °F 100% 29.42 in 6.2 mi WSW 5.8 mph - N/A Rain Light Rain
5:49 AM 48.2 °F - 48.2 °F 100% 29.42 in 6.2 mi WSW 5.8 mph - N/A Rain Light Rain
5:55 AM 48.2 °F - 48.2 °F 100% 29.42 in 6.2 mi WSW 6.9 mph - N/A Rain Light Rain
6:00 AM 48.2 °F - 48.2 °F 100% 29.42 in 6.2 mi WSW 5.8 mph - N/A Rain Light Rain
6:02 AM 48.2 °F - 48.2 °F 100% 29.42 in 6.2 mi WSW 5.8 mph - N/A Rain Light Rain Showers
6:08 AM 48.2 °F - 48.2 °F 100% 29.42 in 5.6 mi WSW 5.8 mph - N/A Rain Light Rain
6:20 AM 48.2 °F - 48.2 °F 100% 29.42 in 6.2 mi WSW 8.1 mph - N/A Rain Light Rain
6:25 AM 48.2 °F - 48.2 °F 100% 29.42 in 6.2 mi WSW 9.2 mph - N/A Rain Drizzle
6:30 AM 48.2 °F - 48.2 °F 100% 29.42 in 4.3 mi West 8.1 mph - N/A   Heavy Drizzle
6:43 AM 48.2 °F - 48.2 °F 100% 29.44 in 5.0 mi West 10.4 mph - N/A Rain Light Rain
6:47 AM 48.2 °F - 48.2 °F 100% 29.44 in 5.6 mi West 10.4 mph - N/A   Drizzle
6:55 AM 48.2 °F - 46.4 °F 93% 29.44 in 5.0 mi West 10.4 mph - N/A Rain Light Rain
7:03 AM 48.2 °F - 46.4 °F 93% 29.44 in 5.6 mi West 9.2 mph - N/A Rain Light Rain
7:07 AM 48.2 °F - 46.4 °F 93% 29.44 in 6.2 mi West 10.4 mph - N/A Rain Light Rain
7:20 AM 46.4 °F 41.9 °F 46.4 °F 100% 29.44 in 6.2 mi WSW 9.2 mph - N/A Rain Light Rain
7:25 AM 46.4 °F 42.4 °F 46.4 °F 100% 29.47 in 6.2 mi WSW 8.1 mph - N/A Rain Light Rain
7:35 AM 46.4 °F 42.9 °F 46.4 °F 100% 29.47 in 6.2 mi WSW 6.9 mph - N/A   Light Drizzle
7:36 AM 46.4 °F 42.9 °F 46.4 °F 100% 29.47 in 6.2 mi WSW 6.9 mph - N/A   Mostly Cloudy
7:55 AM 46.4 °F 43.5 °F 46.4 °F 100% 29.47 in 6.2 mi WSW 5.8 mph - N/A   Mostly Cloudy
8:25 AM 46.4 °F 43.5 °F 46.4 °F 100% 29.47 in 6.2 mi WSW 5.8 mph - N/A   Mostly Cloudy
8:55 AM 46.4 °F 43.5 °F 44.6 °F 93% 29.47 in 6.2 mi SSW 5.8 mph - N/A   Mostly Cloudy
9:25 AM 46.4 °F 42.4 °F 44.6 °F 93% 29.47 in 6.2 mi SSW 8.1 mph - N/A   Mostly Cloudy
9:55 AM 46.4 °F 42.4 °F 46.4 °F 100% 29.50 in 6.2 mi SSW 8.1 mph - N/A   Mostly Cloudy
10:25 AM 46.4 °F 41.9 °F 46.4 °F 100% 29.50 in 6.2 mi SSW 9.2 mph - N/A   Overcast
10:55 AM 46.4 °F 40.7 °F 46.4 °F 100% 29.50 in 6.2 mi SSW 12.7 mph - N/A   Mostly Cloudy
11:00 AM 46.4 °F 40.4 °F 46.4 °F 100% 29.50 in 6.2 mi SSW 13.8 mph - N/A   Mostly Cloudy
11:07 AM 48.2 °F - 46.4 °F 93% 29.50 in 6.2 mi SSW 13.8 mph - N/A   Mostly Cloudy
11:08 AM 48.2 °F - 46.4 °F 93% 29.50 in 6.2 mi SSW 13.8 mph - N/A   Mostly Cloudy
11:25 AM 48.2 °F - 46.4 °F 93% 29.50 in 6.2 mi SSW 15.0 mph - N/A   Overcast
11:55 AM 48.2 °F - 46.4 °F 93% 29.47 in 6.2 mi SSW 13.8 mph - N/A   Overcast
12:09 PM 48.2 °F - 46.4 °F 93% 29.47 in 6.2 mi SSW 13.8 mph - N/A   Overcast
12:25 PM 50.0 °F - 46.4 °F 87% 29.47 in 6.2 mi SSW 12.7 mph - N/A   Overcast
12:29 PM 50.0 °F - 46.4 °F 87% 29.47 in 6.2 mi SSW 15.0 mph - N/A   Mostly Cloudy
12:45 PM 50.0 °F - 46.4 °F 87% 29.47 in 6.2 mi SSW 13.8 mph - N/A   Mostly Cloudy
12:49 PM 50.0 °F - 46.4 °F 87% 29.44 in 6.2 mi SSW 13.8 mph - N/A   Mostly Cloudy
12:55 PM 50.0 °F - 46.4 °F 87% 29.44 in 6.2 mi SSW 15.0 mph - N/A   Mostly Cloudy
1:17 PM 50.0 °F - 46.4 °F 87% 29.44 in 6.2 mi South 15.0 mph - N/A   Scattered Clouds
1:25 PM 50.0 °F - 46.4 °F 87% 29.44 in 6.2 mi South 15.0 mph - N/A   Scattered Clouds
1:37 PM 50.0 °F - 48.2 °F 94% 29.44 in 6.2 mi SSW 15.0 mph - N/A   Scattered Clouds
1:55 PM 50.0 °F - 44.6 °F 82% 29.44 in 6.2 mi SSW 17.3 mph - N/A   Unknown
2:07 PM 50.0 °F - 44.6 °F 82% 29.44 in 6.2 mi SSW 18.4 mph - N/A   Mostly Cloudy
2:20 PM 50.0 °F - 44.6 °F 82% 29.42 in 6.2 mi SSW 15.0 mph - N/A   Mostly Cloudy
2:25 PM 50.0 °F - 44.6 °F 82% 29.42 in 6.2 mi SSW 16.1 mph - N/A   Mostly Cloudy
2:55 PM 50.0 °F - 44.6 °F 82% 29.42 in 6.2 mi SSW 17.3 mph - N/A   Mostly Cloudy
3:25 PM 51.8 °F - 44.6 °F 76% 29.42 in 6.2 mi SSW 17.3 mph 28.8 mph N/A   Mostly Cloudy
3:55 PM 50.0 °F - 44.6 °F 82% 29.42 in 6.2 mi SSW 17.3 mph 28.8 mph N/A Rain Light Rain
4:25 PM 51.8 °F - 42.8 °F 71% 29.39 in 6.2 mi SSW 17.3 mph - N/A   Mostly Cloudy
4:36 PM 50.0 °F - 42.8 °F 76% 29.39 in 4.3 mi SSW 17.3 mph - N/A   Heavy Drizzle
4:37 PM 50.0 °F - 44.6 °F 82% 29.39 in 6.2 mi SW 17.3 mph - N/A Rain Rain
4:55 PM 50.0 °F - 44.6 °F 82% 29.39 in 6.2 mi SSW 17.3 mph 29.9 mph N/A   Mostly Cloudy
5:25 PM 50.0 °F - 42.8 °F 76% 29.42 in 6.2 mi SW 19.6 mph 32.2 mph N/A   Overcast
5:55 PM 48.2 °F - 44.6 °F 87% 29.42 in 6.2 mi WSW 17.3 mph 28.8 mph N/A Rain Light Rain Showers
6:01 PM 48.2 °F - 44.6 °F 87% 29.42 in 4.3 mi SW 13.8 mph 26.5 mph N/A Rain Light Rain
6:12 PM 48.2 °F - 44.6 °F 87% 29.42 in 6.2 mi SW 15.0 mph 31.1 mph N/A Rain Light Rain
6:20 PM 48.2 °F - 44.6 °F 87% 29.42 in 6.2 mi SW 15.0 mph 31.1 mph N/A Rain Drizzle
6:25 PM 48.2 °F - 44.6 °F 87% 29.42 in 6.2 mi SW 15.0 mph - N/A   Drizzle
6:40 PM 50.0 °F - 44.6 °F 82% 29.44 in 6.2 mi SW 17.3 mph 32.2 mph N/A   Overcast
6:55 PM 50.0 °F - 44.6 °F 82% 29.44 in 6.2 mi SW 16.1 mph 28.8 mph N/A   Overcast
7:21 PM 50.0 °F - 44.6 °F 82% 29.44 in 6.2 mi WSW 16.1 mph - N/A   Mostly Cloudy
7:25 PM 50.0 °F - 44.6 °F 82% 29.47 in 6.2 mi WSW 17.3 mph 28.8 mph N/A   Mostly Cloudy
7:42 PM 48.2 °F - 44.6 °F 87% 29.47 in 6.2 mi WSW 16.1 mph 27.6 mph N/A   Mostly Cloudy
7:47 PM 48.2 °F - 44.6 °F 87% 29.47 in 6.2 mi WSW 15.0 mph - N/A   Mostly Cloudy
7:55 PM 50.0 °F - 44.6 °F 82% 29.47 in 6.2 mi SW 15.0 mph - N/A   Overcast
8:25 PM 48.2 °F - 44.6 °F 87% 29.47 in 6.2 mi WSW 15.0 mph 28.8 mph N/A   Mostly Cloudy
8:35 PM 50.0 °F - 44.6 °F 82% 29.50 in 6.2 mi WSW 13.8 mph - N/A   Mostly Cloudy
8:43 PM 50.0 °F - 44.6 °F 82% 29.50 in 6.2 mi SW 15.0 mph - N/A   Mostly Cloudy
8:55 PM 50.0 °F - 44.6 °F 82% 29.50 in 6.2 mi WSW 15.0 mph - N/A   Overcast
9:08 PM 50.0 °F - 44.6 °F 82% 29.50 in 6.2 mi WSW 13.8 mph - N/A   Overcast
9:09 PM 50.0 °F - 44.6 °F 82% 29.50 in 6.2 mi SW 13.8 mph - N/A   Mostly Cloudy
9:19 PM 50.0 °F - 44.6 °F 82% 29.50 in 6.2 mi WSW 15.0 mph - N/A Rain Light Rain
9:25 PM 50.0 °F - 44.6 °F 82% 29.50 in 6.2 mi WSW 12.7 mph 25.3 mph N/A   Mostly Cloudy
9:37 PM 50.0 °F - 44.6 °F 82% 29.50 in 6.2 mi WSW 15.0 mph - N/A   Mostly Cloudy
9:51 PM 50.0 °F - 44.6 °F 82% 29.53 in 6.2 mi WSW 15.0 mph - N/A   Overcast
9:55 PM 50.0 °F - 44.6 °F 82% 29.53 in 6.2 mi WSW 15.0 mph - N/A   Overcast
10:04 PM 50.0 °F - 44.6 °F 82% 29.53 in 6.2 mi WSW 12.7 mph 24.2 mph N/A   Mostly Cloudy
10:14 PM 50.0 °F - 44.6 °F 82% 29.53 in 6.2 mi SW 13.8 mph 27.6 mph N/A   Overcast
10:25 PM 50.0 °F - 44.6 °F 82% 29.53 in 6.2 mi SW 16.1 mph - N/A   Overcast
10:43 PM 50.0 °F - 44.6 °F 82% 29.53 in 6.2 mi WSW 13.8 mph 25.3 mph N/A   Mostly Cloudy
10:55 PM 50.0 °F - 44.6 °F 82% 29.56 in 6.2 mi WSW 13.8 mph - N/A   Mostly Cloudy
10:59 PM 50.0 °F - 44.6 °F 82% 29.56 in 6.2 mi WSW 15.0 mph - N/A   Mostly Cloudy
11:04 PM 50.0 °F - 44.6 °F 82% 29.56 in 6.2 mi WSW 15.0 mph - N/A   Mostly Cloudy
11:25 PM 48.2 °F - 42.8 °F 82% 29.56 in 6.2 mi WSW 13.8 mph - N/A   Overcast
11:34 PM 48.2 °F - 42.8 °F 82% 29.56 in 6.2 mi WSW 15.0 mph - N/A   Overcast
11:38 PM 48.2 °F - 42.8 °F 82% 29.56 in 6.2 mi WSW 13.8 mph - N/A   Overcast
11:55 PM 48.2 °F - 42.8 °F 82% 29.59 in 6.2 mi WSW 13.8 mph 27.6 mph N/A   Mostly Cloudy
11:59 PM 48.2 °F - 42.8 °F 82% 29.59 in 6.2 mi WSW 13.8 mph 27.6 mph N/A   Mostly Cloudy